User: anonymous   Login
Location: Unspecified
(0.0000°N, 0.0000°E)
Time: 04:30:04
(UTC+00:00)
Language:

STARLINK-1718 - Orbit

View from above orbital plane
View from above orbital plane
View from above satellite
View from above satellite

Ground track
Ground track

The orbit is defined by the following mean orbital elements,

1 46674U          26145.59059083 +.00000000 +00000-0 +62968-3 0 00001
2 46674  53.0424 211.3507 0002663 306.2504  53.8267 15.69863131    07
Epoch (UTC): 25 May 2026 14:10:27
Eccentricity: 0.0002663
inclination: 53.0424°
perigee height: 357 km
apogee height: 361 km
right ascension of ascending node: 211.3507°
argument of perigee: 306.2504°
revolutions per day: 15.69863131
mean anomaly at epoch: 53.8267°

The dashed part of the orbit path shows where the satellite is in the earth's shadow,  

DLR